Terminal Aerodrome Forecast
Issued by NWS

Home | Current Version | Previous Version | Text Only | Print | Product List | Glossary On
Versions: 1 2 3 4 5 6 7 8 9 10 11 12 13 14
017
FTUS46 KMTR 140529
TAFSJC
TAF
KSJC 140529Z 1406/1506 31004KT P6SM FEW250
      TEMPO 1412/1416 SCT008 BKN250
     FM141700 30005KT P6SM FEW250
     FM142100 32010G18KT P6SM SKC
     FM150300 31009KT P6SM SKC=

USA.gov is the U.S. government's official web portal to all federal, state and local government web resources and services.